Wind_Speed
19 17 14 12 11 10 9 8 8 8 8 8 9 9 9 9 9 10 10 11 10 11 11 10 10 11 12 13 13 14 14 14 14 14 15 16 15 15 15 15 14 14
18 17 16 14 12 11 10 9 9 9 9 9 10 10 10 9 10 10 11 11 10 10 10 10 10 10 11 12 13 13 14 14 14 14 14 15 15 15 15 15 15 15
18 17 17 15 13 12 11 10 10 9 9 10 11 11 11 10 10 10 10 10 10 10 10 10 10 10 11 12 12 13 14 14 14 14 14 14 14 14 14 15 15 15
18 18 18 16 14 13 12 11 10 10 10 11 11 11 11 10 10 10 10 10 11 10 10 10 10 10 11 11 12 13 13 13 13 13 14 14 14 14 14 14 15 14
19 19 18 16 15 15 14 13 11 11 11 11 12 11 11 11 11 10 10 10 10 10 10 10 10 10 10 10 11 12 12 12 12 12 13 13 12 12 13 13 13 13
19 18 18 17 17 16 15 14 12 12 12 12 12 11 11 11 11 10 10 10 10 10 10 10 10 9 9 9 9 10 10 10 10 10 10 10 10 10 11 11 12 12
19 18 18 17 17 16 15 14 13 13 12 12 11 11 11 11 10 10 10 10 10 10 10 9 9 9 8 8 8 8 8 8 7 8 8 9 9 9 9 9 10 11
19 18 17 17 17 17 15 15 14 14 13 12 11 11 10 11 10 10 10 10 10 10 9 9 8 8 8 7 7 8 7 7 5 6 7 7 6 6 7 8 8 9
19 18 17 17 18 17 16 16 15 14 13 12 11 10 10 10 10 10 10 9 9 9 9 9 8 8 7 6 6 6 6 5 4 4 5 5 4 4 5 7 6 7
18 17 17 17 19 18 16 16 16 14 14 12 10 10 11 10 10 10 9 9 9 9 8 8 8 8 7 6 6 5 5 5 4 4 4 4 2 2 4 5 4 4
17 17 17 16 18 17 15 15 15 13 13 11 10 10 11 10 10 10 9 9 9 9 9 9 8 7 7 6 6 5 5 5 5 4 5 4 3 2 3 5 3 2
18 17 17 16 16 15 13 12 12 11 12 12 11 11 11 10 10 10 10 10 10 9 9 9 8 7 7 6 6 6 6 6 6 6 6 5 4 4 3 3 4 3
15 15 16 17 16 16 15 14 12 12 12 12 11 11 11 10 10 10 11 11 10 11 11 11 11 9 7 7 7 7 7 7 7 7 6 6 5 5 4 4 5 4
12 12 14 16 17 17 17 17 16 15 13 11 10 10 10 11 10 10 11 12 12 11 11 10 9 8 6 8 9 10 9 9 9 9 8 8 5 4 4 4 4 4
12 12 12 14 15 15 16 17 17 15 13 12 10 10 9 10 11 12 12 13 13 12 8 6 6 8 10 12 12 11 12 12 12 10 8 5 4 3 5 5 5 6
11 10 9 11 12 12 13 14 13 13 13 11 9 10 9 9 10 12 12 11 11 10 7 8 12 14 14 14 12 11 12 12 11 9 7 6 6 6 9 10 9 10
10 10 9 10 10 10 11 11 10 10 11 10 9 11 13 12 12 12 12 10 9 8 8 9 13 15 15 15 14 13 13 11 9 8 8 9 10 10 12 13 13 12
9 9 9 9 9 9 10 10 10 10 10 9 10 12 15 17 16 15 14 12 10 9 9 10 12 14 15 17 17 15 15 13 10 8 9 10 10 11 12 14 14 12
7 8 9 8 7 7 7 7 9 9 10 10 10 11 14 17 19 19 17 15 13 11 10 11 12 13 14 17 19 18 18 17 13 11 12 13 11 11 12 13 12 11
7 7 7 6 6 6 6 6 8 8 9 10 10 10 11 14 16 17 18 17 15 13 12 11 13 15 16 17 19 19 20 19 15 13 14 13 11 11 12 11 11 11
8 7 6 5 4 4 4 5 7 8 9 10 9 9 9 11 13 15 17 17 16 14 13 12 13 16 17 17 18 19 19 17 13 13 14 12 10 10 11 10 10 11
9 8 6 5 4 3 1 1 4 6 7 9 9 9 9 10 12 13 15 16 15 14 14 14 15 16 17 17 18 19 18 15 12 13 14 11 9 9 9 9 11 12
13 12 11 9 8 6 5 5 2 1 3 6 8 9 10 11 13 14 14 15 16 16 16 16 17 17 17 18 19 18 16 15 14 14 14 12 10 12 11 11 13 13
14 13 13 12 11 11 11 10 7 5 4 4 6 7 9 10 11 12 14 15 16 17 17 17 17 17 18 19 19 17 15 16 17 15 14 14 12 13 13 13 13 11
14 12 11 11 11 12 12 12 10 9 9 9 8 8 9 9 11 12 13 14 15 15 16 16 16 16 17 18 17 16 15 18 19 16 14 16 15 12 10 11 12 11
14 11 10 10 10 11 11 12 12 11 12 12 11 9 10 11 11 12 13 14 15 15 15 15 15 15 16 17 16 17 18 19 19 16 13 17 18 13 11 11 11 12
Wind_Direction
174 173 177 182 185 187 186 184 182 179 175 165 155 149 146 139 130 125 119 113 113 110 107 105 100 93 91 95 97 96 95 94 94 93 90 86 83 81 76 73 80 85
171 172 174 178 182 184 185 183 180 182 175 163 159 154 148 141 132 126 120 115 114 111 110 109 107 105 100 99 99 99 98 95 94 93 91 88 85 81 76 72 74 80
170 172 171 176 180 178 181 183 181 181 171 162 161 156 150 146 136 127 122 120 118 115 116 114 110 107 104 103 101 99 98 96 95 94 92 89 87 84 79 76 76 79
171 172 173 176 178 176 178 179 179 178 168 163 162 158 154 149 140 133 128 124 121 118 117 115 113 110 107 106 104 102 100 98 98 97 95 92 88 87 84 81 81 81
171 172 175 175 174 175 176 176 179 177 169 168 164 162 160 153 147 142 135 131 128 125 122 117 114 111 109 107 105 102 100 102 102 99 96 95 91 87 83 82 82 81
173 172 173 175 175 174 174 175 177 175 171 171 167 165 164 157 155 152 146 142 136 130 126 122 118 116 114 110 105 104 103 103 104 100 95 94 92 87 83 83 81 79
174 174 173 175 175 173 174 175 174 173 172 172 171 170 168 165 165 163 157 151 144 140 136 131 129 124 119 114 112 113 108 101 102 101 99 97 92 88 89 88 85 85
176 176 175 177 176 173 175 174 172 171 171 172 172 173 174 174 174 171 167 160 152 149 144 140 139 132 128 128 125 122 114 106 102 100 101 100 90 90 98 90 82 88
178 178 177 177 176 175 176 175 173 171 171 172 173 175 180 183 181 177 175 170 163 160 156 152 150 143 139 140 135 130 125 118 111 105 108 106 95 103 110 99 89 91
176 178 178 178 177 178 178 176 175 172 170 172 174 179 185 188 184 180 182 181 174 170 168 163 161 158 154 155 153 151 151 149 146 142 139 131 124 126 112 108 111 104
174 177 178 178 176 177 177 173 176 176 173 176 178 179 187 189 184 184 191 190 185 183 181 177 177 172 166 170 173 176 184 184 179 179 173 168 184 181 126 121 128 124
171 173 175 172 170 172 167 165 179 185 179 183 185 183 188 189 183 188 198 196 195 197 191 183 184 184 180 187 193 197 205 207 202 201 198 195 203 204 181 170 171 160
163 165 170 172 174 178 169 163 179 192 188 189 190 186 189 192 190 196 205 206 205 204 203 199 194 193 198 202 205 211 218 222 218 213 212 212 210 211 215 218 211 201
163 168 176 178 181 185 178 170 175 184 189 193 196 195 193 195 201 206 210 213 217 215 214 210 195 188 206 213 212 219 224 227 229 226 222 224 227 230 228 232 234 230
160 170 178 181 182 185 184 180 179 185 194 195 194 198 196 192 200 212 218 220 227 231 229 220 200 198 209 211 215 229 237 237 239 240 239 253 287 274 233 229 235 231
142 149 160 169 172 178 184 183 183 192 204 207 199 200 204 201 203 216 224 222 224 230 235 232 225 222 221 217 218 230 235 236 241 246 252 262 266 254 239 236 239 238
138 150 159 165 168 176 182 182 181 189 202 215 221 218 220 224 226 230 232 225 219 229 247 245 233 230 229 223 223 231 235 240 253 258 255 249 244 245 246 244 244 244
128 140 147 157 168 178 183 184 184 184 188 199 218 226 228 232 236 241 243 237 229 238 256 254 237 232 232 228 230 240 243 247 263 268 261 257 250 247 249 246 241 236
114 119 129 139 151 162 173 181 182 181 178 184 204 220 227 231 235 239 245 243 238 242 250 247 236 234 234 229 232 239 241 245 259 269 265 264 256 243 240 239 234 231
102 98 106 116 128 142 160 176 177 178 178 183 198 212 219 228 234 238 243 243 242 246 244 235 234 239 239 232 228 234 240 244 252 256 256 255 249 238 233 226 220 225
67 68 73 87 102 120 146 175 177 182 190 195 205 220 226 231 233 234 237 237 236 239 237 232 236 243 243 239 235 237 242 244 242 241 243 243 237 225 216 207 205 213
33 41 45 43 47 68 77 233 175 177 192 199 208 223 230 231 233 235 240 241 237 236 238 238 241 244 242 242 244 243 240 235 230 230 230 226 211 193 185 188 195 203
14 17 17 14 8 1 354 350 349 198 204 203 205 214 215 216 225 231 236 242 243 241 241 241 242 243 240 240 241 239 234 225 214 212 216 214 200 187 181 177 175 179
4 5 5 2 354 351 353 353 345 330 308 269 240 233 223 214 217 220 222 227 232 234 234 235 239 239 238 238 235 228 224 213 200 200 209 205 188 179 179 177 172 165
348 352 355 351 343 342 344 342 336 326 312 299 278 261 250 234 221 216 217 217 220 227 228 226 230 232 229 227 221 212 207 198 195 206 210 185 164 159 170 174 172 169
332 335 338 335 329 328 329 326 323 315 307 304 294 273 264 256 238 226 223 216 211 217 221 218 221 223 217 212 208 203 197 193 200 217 210 178 162 154 158 163 162 164
Height
807 810 812 814 816 817 818 819 819 820 820 821 821 822 823 823 823 823 823 824 824 825 825 826 826 826 826 826 826 827 828 828 829 829 829 830 830 830 830 830 831 831
807 809 811 813 815 816 817 818 819 820 820 821 822 822 823 823 823 823 823 824 824 825 826 826 826 826 826 827 827 827 828 829 829 830 830 831 831 831 831 831 832 832
807 809 810 812 814 815 817 818 819 820 820 821 822 822 823 823 824 824 824 824 825 825 826 826 826 827 827 827 827 827 828 829 830 830 831 831 832 832 832 832 833 833
806 808 809 811 812 814 816 817 819 820 820 821 822 822 823 823 824 824 824 825 825 826 826 827 827 827 827 828 828 828 829 829 830 831 831 832 832 833 833 833 833 834
805 807 808 810 811 813 815 817 818 820 821 821 822 822 823 823 823 824 825 825 825 826 826 827 827 827 828 828 828 829 829 830 830 831 831 832 833 833 833 834 834 834
805 806 807 809 810 812 814 816 818 819 821 822 822 823 823 823 824 824 825 825 825 826 826 827 827 828 828 829 829 830 830 831 831 832 832 833 833 834 834 835 835 835
804 805 807 808 809 812 813 815 817 819 820 821 822 823 823 824 824 825 825 825 825 826 826 827 827 828 828 829 830 830 831 832 832 833 833 834 834 835 835 836 836 836
803 804 806 808 809 811 813 815 817 818 820 821 822 823 824 824 825 825 826 826 826 826 826 827 827 828 829 829 830 831 831 832 833 833 834 835 835 836 836 837 837 837
802 803 805 807 808 811 813 815 817 818 820 821 822 823 824 825 825 826 826 826 826 826 826 827 828 828 829 830 830 831 832 833 834 834 835 835 836 837 837 837 838 838
801 803 805 806 808 811 813 815 818 819 821 822 823 823 824 825 825 826 826 826 826 826 827 827 828 828 829 830 831 832 833 834 834 835 835 836 837 837 837 838 838 839
800 802 804 806 809 812 814 817 819 820 821 823 823 823 824 824 825 825 826 826 826 826 827 827 828 829 830 831 832 833 833 834 834 835 836 836 837 837 837 838 839 839
799 801 803 806 809 811 814 818 821 822 822 823 823 823 823 824 824 825 825 825 826 826 827 827 828 830 831 831 832 833 834 834 835 835 836 837 837 838 838 839 839 840
798 800 802 805 808 810 812 816 819 821 821 821 822 822 823 823 823 824 824 824 825 825 826 827 829 830 831 832 833 833 834 834 835 836 837 837 838 839 839 840 840 841
799 801 802 804 807 809 810 811 814 817 819 820 821 821 821 822 822 823 823 823 824 825 826 827 828 829 831 831 832 832 833 834 835 836 837 838 839 839 840 841 841 842
800 801 802 804 806 808 809 810 811 814 816 818 819 819 819 820 820 821 822 822 823 824 825 825 826 827 828 828 829 831 833 834 835 836 837 839 840 840 840 840 841 841
801 802 803 804 806 808 809 810 812 814 815 816 816 816 817 818 819 820 820 821 822 823 823 823 825 827 827 827 828 830 832 833 834 835 837 838 839 839 839 839 840 841
802 804 805 806 807 808 810 811 813 814 815 816 816 816 817 818 818 819 819 820 821 821 822 823 825 826 826 827 827 828 830 831 831 833 835 836 837 837 837 838 839 840
803 805 806 807 807 808 809 811 813 814 815 816 816 816 817 818 818 818 819 820 821 821 822 823 825 826 826 826 826 827 829 830 830 832 833 834 834 835 836 836 837 837
804 805 806 807 807 808 809 810 812 813 814 815 816 816 817 817 818 818 818 819 820 821 822 823 824 825 824 825 826 827 828 829 829 830 831 832 833 833 833 834 834 835
805 805 806 807 808 809 810 810 812 813 814 814 814 815 815 816 816 817 817 818 818 820 821 821 822 823 823 823 824 825 826 827 828 829 829 830 831 831 831 832 833 834
806 806 807 807 808 809 810 810 811 812 813 813 813 813 814 814 814 815 815 815 816 818 819 819 819 820 821 821 822 823 823 825 826 827 827 828 828 828 829 830 832 832
808 808 808 808 809 809 810 810 810 810 811 812 812 812 812 813 813 813 813 812 813 814 816 817 816 817 818 820 820 821 821 822 823 824 825 826 826 826 827 829 830 831
810 809 809 809 809 809 809 809 809 810 810 810 811 811 811 811 812 812 812 812 811 812 814 815 815 815 817 818 818 819 820 821 822 822 823 825 825 825 826 827 828 829
813 811 811 810 810 810 809 809 809 809 809 809 810 810 810 810 811 811 812 812 812 813 814 814 814 815 816 816 817 818 819 820 821 821 822 824 825 825 825 825 826 828
815 814 813 813 812 811 811 810 810 809 809 809 809 809 809 809 810 810 811 812 812 813 813 814 814 814 814 815 815 816 818 818 820 820 821 822 824 824 825 825 826 827
816 816 815 815 814 813 812 811 810 810 809 809 808 808 808 808 808 809 809 809 810 811 811 812 813 813 813 814 814 815 816 817 818 819 820 821 822 823 825 826 826 827